ONEWEB-0403

operational
NORAD ID: 50483 Int'l Des: 2021-132 Owner: ONEWEBN Country: UK Constellation: oneweb
LEOCIRCULARPOLARONEWEB_TYPE

ONEWEB-0403について

説明を読み込み中...

リアルタイム位置

3D地球を読み込み中...

次回通過

高度履歴

Altitude vs Time

uPlot chart will show altitude changes over time

軌道要素

1 50483U 21132Q 25250.09826962 .00000012 00000-0 -11337-5 0 9999
2 50483 87.9178 31.6643 0001847 97.9901 262.1441 13.18685109184285
Epoch: Sep 7, 2025 • Age: 22 hours

現在のステータス

高度 1193.7 km
速度 7.26 km/s
衛星直下点 34.76°N, 39.8°E
打ち上げ日 Dec 27, 2021
運用期間 3.6 years
タイプ internet

技術仕様

分類 Payload
質量 148.00 kg
乾燥質量 140.00 kg
総質量 148.00 kg
長さ 1.30 m
直径 1.00 m
スパン 5.00 m
形状 Trapezoid+2 pan
製造者 ONEWUS
バスタイプ ARROW
フェーズステータス In Orbit
所有者/国 ONEWEBN/UK

大規模コンステレーション

Loading constellations...